TimeCDT,TemperatureF,Dew PointF,Humidity,Sea Level PressureIn,VisibilityMPH,Wind Direction,Wind SpeedMPH,Gust SpeedMPH,PrecipitationIn,Events,Conditions,WindDirDegrees,DateUTC
12:15 AM,62.6,41.0,45,30.22,10.0,North,15.0,-,N/A,,Clear,350,2014-03-13 05:15:00
12:35 AM,62.6,39.2,42,30.22,10.0,North,16.1,-,N/A,,Clear,360,2014-03-13 05:35:00
12:55 AM,62.6,39.2,42,30.23,10.0,North,13.8,20.7,N/A,,Clear,350,2014-03-13 05:55:00
1:15 AM,62.6,41.0,45,30.23,10.0,North,12.7,19.6,N/A,,Clear,350,2014-03-13 06:15:00
1:35 AM,62.6,39.2,42,30.23,10.0,North,13.8,-,N/A,,Clear,350,2014-03-13 06:35:00
1:55 AM,60.8,39.2,45,30.23,10.0,North,12.7,19.6,N/A,,Clear,350,2014-03-13 06:55:00
2:15 AM,60.8,39.2,45,30.24,10.0,North,12.7,19.6,N/A,,Clear,360,2014-03-13 07:15:00
2:35 AM,60.8,39.2,45,30.24,10.0,North,12.7,-,N/A,,Clear,10,2014-03-13 07:35:00
2:55 AM,60.8,41.0,48,30.23,10.0,North,15.0,-,N/A,,Clear,360,2014-03-13 07:55:00
3:15 AM,60.8,41.0,48,30.23,10.0,North,15.0,-,N/A,,Clear,360,2014-03-13 08:15:00
3:35 AM,60.8,42.8,52,30.23,10.0,North,12.7,20.7,N/A,,Clear,360,2014-03-13 08:35:00
3:55 AM,60.8,41.0,48,30.22,10.0,North,15.0,20.7,N/A,,Clear,360,2014-03-13 08:55:00
4:15 AM,60.8,41.0,48,30.22,10.0,North,13.8,19.6,N/A,,Partly Cloudy,10,2014-03-13 09:15:00
4:35 AM,60.8,41.0,48,30.22,10.0,North,11.5,17.3,N/A,,Clear,10,2014-03-13 09:35:00
4:55 AM,60.8,41.0,48,30.22,10.0,North,11.5,18.4,N/A,,Clear,10,2014-03-13 09:55:00
5:15 AM,60.8,42.8,52,30.22,10.0,North,13.8,-,N/A,,Clear,10,2014-03-13 10:15:00
5:35 AM,60.8,42.8,52,30.22,10.0,North,11.5,-,N/A,,Clear,10,2014-03-13 10:35:00
5:55 AM,60.8,42.8,52,30.23,10.0,North,11.5,18.4,N/A,,Clear,10,2014-03-13 10:55:00
6:15 AM,62.6,41.0,45,30.24,10.0,NNE,12.7,21.9,N/A,,Clear,20,2014-03-13 11:15:00
6:35 AM,60.8,41.0,48,30.25,10.0,NNE,13.8,-,N/A,,Clear,20,2014-03-13 11:35:00
6:55 AM,60.8,41.0,48,30.26,10.0,NNE,15.0,21.9,N/A,,Clear,30,2014-03-13 11:55:00
7:15 AM,60.8,42.8,52,30.26,10.0,NNE,11.5,21.9,N/A,,Clear,20,2014-03-13 12:15:00
7:35 AM,60.8,41.0,48,30.27,10.0,NNE,13.8,21.9,N/A,,Clear,30,2014-03-13 12:35:00
7:55 AM,60.8,42.8,52,30.27,10.0,NNE,12.7,21.9,N/A,,Clear,30,2014-03-13 12:55:00
8:15 AM,62.6,44.6,52,30.28,10.0,NNE,12.7,19.6,N/A,,Clear,30,2014-03-13 13:15:00
8:35 AM,62.6,44.6,52,30.29,10.0,NE,15.0,-,N/A,,Clear,40,2014-03-13 13:35:00
8:55 AM,62.6,44.6,52,30.29,10.0,NE,18.4,-,N/A,,Clear,40,2014-03-13 13:55:00
9:15 AM,62.6,44.6,52,30.30,10.0,NE,18.4,-,N/A,,Clear,40,2014-03-13 14:15:00
9:35 AM,62.6,44.6,52,30.31,10.0,NE,16.1,-,N/A,,Clear,40,2014-03-13 14:35:00
9:55 AM,62.6,42.8,48,30.31,10.0,NE,17.3,-,N/A,,Clear,50,2014-03-13 14:55:00
10:15 AM,62.6,44.6,52,30.31,10.0,NE,13.8,19.6,N/A,,Clear,50,2014-03-13 15:15:00
10:35 AM,62.6,44.6,52,30.31,10.0,NE,16.1,-,N/A,,Clear,40,2014-03-13 15:35:00
10:55 AM,62.6,44.6,52,30.30,10.0,NE,15.0,-,N/A,,Clear,50,2014-03-13 15:55:00
11:15 AM,62.6,44.6,52,30.30,10.0,ENE,15.0,-,N/A,,Clear,60,2014-03-13 16:15:00
11:35 AM,62.6,44.6,52,30.30,10.0,NE,13.8,-,N/A,,Clear,50,2014-03-13 16:35:00
11:55 AM,62.6,44.6,52,30.30,9.0,NE,13.8,-,N/A,,Clear,50,2014-03-13 16:55:00
12:15 PM,64.4,44.6,49,30.30,10.0,ENE,12.7,-,N/A,,Clear,60,2014-03-13 17:15:00
12:35 PM,64.4,46.4,52,30.29,10.0,ENE,11.5,-,N/A,,Clear,60,2014-03-13 17:35:00
12:55 PM,64.4,46.4,52,30.28,10.0,ENE,11.5,-,N/A,,Clear,60,2014-03-13 17:55:00
1:15 PM,64.4,48.2,56,30.28,10.0,ENE,9.2,-,N/A,,Clear,60,2014-03-13 18:15:00
1:35 PM,64.4,48.2,56,30.27,10.0,ENE,9.2,-,N/A,,Clear,70,2014-03-13 18:35:00
1:55 PM,64.4,46.4,52,30.26,10.0,NE,9.2,-,N/A,,Clear,50,2014-03-13 18:55:00
2:15 PM,64.4,48.2,56,30.24,10.0,ENE,9.2,-,N/A,,Clear,70,2014-03-13 19:15:00
2:35 PM,64.4,48.2,56,30.23,10.0,East,10.4,-,N/A,,Clear,80,2014-03-13 19:35:00
2:55 PM,64.4,48.2,56,30.23,10.0,ENE,10.4,-,N/A,,Clear,60,2014-03-13 19:55:00
3:15 PM,64.4,48.2,56,30.21,10.0,East,10.4,-,N/A,,Clear,80,2014-03-13 20:15:00
3:35 PM,64.4,48.2,56,30.20,10.0,ENE,10.4,-,N/A,,Clear,70,2014-03-13 20:35:00
3:55 PM,64.4,48.2,56,30.20,10.0,ENE,10.4,-,N/A,,Clear,70,2014-03-13 20:55:00
4:15 PM,64.4,48.2,56,30.19,10.0,East,9.2,-,N/A,,Clear,90,2014-03-13 21:15:00
4:35 PM,64.4,48.2,56,30.18,10.0,East,10.4,-,N/A,,Clear,80,2014-03-13 21:35:00
4:55 PM,64.4,48.2,56,30.17,10.0,ENE,10.4,-,N/A,,Clear,70,2014-03-13 21:55:00
5:15 PM,64.4,50.0,59,30.17,10.0,ENE,11.5,-,N/A,,Clear,70,2014-03-13 22:15:00
5:35 PM,64.4,50.0,59,30.17,10.0,ENE,10.4,-,N/A,,Clear,70,2014-03-13 22:35:00
5:55 PM,64.4,50.0,59,30.16,10.0,ENE,11.5,-,N/A,,Clear,70,2014-03-13 22:55:00
6:15 PM,64.4,51.8,64,30.16,10.0,ENE,11.5,-,N/A,,Clear,70,2014-03-13 23:15:00
6:35 PM,64.4,50.0,59,30.16,10.0,East,10.4,-,N/A,,Clear,90,2014-03-13 23:35:00
6:55 PM,64.4,51.8,64,30.16,10.0,East,10.4,-,N/A,,Clear,80,2014-03-13 23:55:00
7:15 PM,64.4,51.8,64,30.16,10.0,East,13.8,-,N/A,,Partly Cloudy,80,2014-03-14 00:15:00
7:35 PM,64.4,53.6,68,30.15,10.0,East,13.8,-,N/A,,Clear,80,2014-03-14 00:35:00
7:55 PM,66.2,53.6,64,30.15,10.0,East,13.8,-,N/A,,Clear,90,2014-03-14 00:55:00
8:15 PM,66.2,53.6,64,30.15,10.0,East,15.0,-,N/A,,Scattered Clouds,100,2014-03-14 01:15:00
8:35 PM,66.2,55.4,68,30.15,10.0,East,16.1,-,N/A,,Overcast,100,2014-03-14 01:35:00
8:45 PM,66.2,55.4,68,30.15,10.0,East,15.0,-,N/A,,Overcast,90,2014-03-14 01:45:00
9:15 PM,66.2,55.4,68,30.15,10.0,East,16.1,-,N/A,,Mostly Cloudy,100,2014-03-14 02:15:00
9:35 PM,66.2,53.6,64,30.15,10.0,East,16.1,-,N/A,,Mostly Cloudy,100,2014-03-14 02:35:00
9:55 PM,66.2,55.4,68,30.15,10.0,East,17.3,-,N/A,,Mostly Cloudy,100,2014-03-14 02:55:00
10:15 PM,66.2,55.4,68,30.15,10.0,East,17.3,-,N/A,,Mostly Cloudy,100,2014-03-14 03:15:00
10:35 PM,66.2,55.4,68,30.15,10.0,East,18.4,-,N/A,,Overcast,100,2014-03-14 03:35:00
10:55 PM,66.2,55.4,68,30.14,10.0,East,18.4,-,N/A,,Overcast,100,2014-03-14 03:55:00
11:15 PM,66.2,55.4,68,30.14,10.0,East,18.4,-,N/A,,Overcast,100,2014-03-14 04:15:00
11:35 PM,66.2,57.2,73,30.14,10.0,East,17.3,-,N/A,,Overcast,100,2014-03-14 04:35:00
11:55 PM,66.2,57.2,73,30.13,10.0,East,18.4,-,N/A,,Overcast,100,2014-03-14 04:55:00